Regional Weather Roundup
Issued by NWS Sterling, VA

Home | Current Version | Previous Version | Text Only | Print | Product List | Glossary Off
Versions: 1 2 3 4 5 6 7 8 9 10 11 12 13 14 15 16 17 18 19 20 21 22 23 24 25 26 27 28 29 30 31 32 33 34 35 36 37 38 39 40 41 42 43 44 45 46 47 48 49 50

703
ASUS41 KLWX 290710
RWRLWX

REGIONAL WEATHER ROUNDUP
NATIONAL WEATHER SERVICE BALTIMORE MD/WASHINGTON DC
300 AM EDT SUN MAY 29 2016

Note: "FAIR" indicates few or no clouds below 12,000 feet
with no significant weather and/or obstructions to visibility.
 TC=TEMPERATURE CELSIUS

 * =Non NWS site. Station does not report precipitation (e.g. rain,
    snow, etc.), thunder, or fog.

DCZ001-MDZ009-015-VAZ040>042-051-053>054-290800-
WASHINGTON METRO

CITY           SKY/WX    TMP DP  RH WIND       PRES   REMARKS
WASHINGTON NAT MOCLDY    69  62  78 S5        30.13F
DULLES         FAIR      67  61  81 S5        30.13F
ANDREWS AFB    CLEAR     64  60  87 S5        30.13F
FT BELVOIR     FAIR      63  62  94 CALM      30.13S
QUANTICO       FAIR      69  63  81 S6        30.13F
COLLEGE PARK*  FAIR      64  61  88 CALM      30.13F
LEESBURG*      FAIR      70  66  88 S3        30.14S
MANASSAS*      FAIR      63  61  94 CALM      30.13F

$$

MDZ006>007-011-014-290800-
BALTIMORE METRO

CITY           SKY/WX    TMP DP  RH WIND       PRES   REMARKS
BWI AIRPORT    PTCLDY    65  59  81 CALM      30.13F
MD SCIENCE CTR   N/A     71  60  68 MISG      30.14F
MARTIN STATE   CLEAR     68  64  88 CALM      30.15F
ANNAPOLIS      CLEAR     66  64  93 SE5       30.13F
FORT MEADE*    CLEAR     59  55  88 CALM      30.16F

$$

MDZ012-015-019>023-290800-
MARYLAND EASTERN SHORE

CITY           SKY/WX    TMP DP  RH WIND       PRES   REMARKS
OCEAN CITY     CLEAR     64  62  93 CALM      30.15F
SALISBURY      CLOUDY    58  57  97 CALM      30.15F FOG
BAY BRIDGE AP* CLEAR     70  64  83 S6        30.14S
CAMBRIDGE*       N/A     59  59 100 CALM      30.14F
EASTON*        CLEAR     64  64  99 CALM      30.18F

$$

MDZ017>025-290800-
SOUTHERN MARYLAND

CITY           SKY/WX    TMP DP  RH WIND       PRES   REMARKS
PATUXENT RIVER CLEAR     61  59  93 CALM      30.14S
ST INIGOES     PTCLDY    63  62  97 CALM      30.13F
LEONARDTOWN*   PTCLDY    61  59  94 CALM      30.15F

$$

MDZ003>005-290800-
NORTH CENTRAL MARYLAND

CITY           SKY/WX    TMP DP  RH WIND       PRES   REMARKS
FREDERICK*     CLEAR     64  63  94 CALM      30.15F
HAGERSTOWN APT CLEAR     73  62  68 SE7       30.12F
WESTMINSTER*   CLEAR     70  66  88 SE3       30.14F

$$

MDZ501>502-290800-
WESTERN MARYLAND

CITY           SKY/WX    TMP DP  RH WIND       PRES   REMARKS
OAKLAND*       NOT AVBL
CUMBERLAND*    CLEAR     66  66 100 CALM      30.15S

$$

VAZ025>031-290800-
SHENANDOAH VALLEY

CITY           SKY/WX    TMP DP  RH WIND       PRES   REMARKS
WINCHESTER*    FAIR      64  61  88 CALM      30.12F
FRONT ROYAL*   FAIR      63  61  94 S5        30.12S
LURAY*         FAIR      63  63 100 CALM      30.15R
NEW MARKET*    FAIR      60  60  99 CALM      30.14S
STAUNTON*      FAIR      61  59  95 CALM      30.18S
WAYNESBORO*    FAIR      61  58  90 CALM      30.17S

$$

WVZ021-048>050-054>055-290800-
EASTERN WEST VIRGINIA PANHANDLE

CITY           SKY/WX    TMP DP  RH WIND       PRES   REMARKS
MARTINSBURG    FAIR      64  62  93 CALM      30.11F
PETERSBURG*    FAIR      63  62  99 CALM      30.14S FOG

$$

VAZ036>039-050-290800-
CENTRAL FOOTHILLS

CITY           SKY/WX    TMP DP  RH WIND       PRES   REMARKS
CHARLOTTESVILL FAIR      65  61  87 SE6       30.14S
CULPEPER*      FAIR      66  64  91 CALM      30.14S
ORANGE*        FAIR      61  61 100 CALM      30.15F
GORDONSVILLE*  FAIR      60  60  99 CALM      30.13S
WARRENTON*     FAIR      61  56  84 CALM      30.13S

$$

VAZ055>057-290800-
NORTH AND CENTRAL PIEDMONT

CITY           SKY/WX    TMP DP  RH WIND       PRES   REMARKS
FREDERICKSBRG* FAIR      65  64  97 CALM      30.12F
STAFFORD*      FAIR      58  56  94 CALM      30.17F

$$

NCZ024-NYZ072-PAZ021-071-VAZ022-071-290800-
OTHER REGIONAL OBSERVATIONS

CITY           SKY/WX    TMP DP  RH WIND       PRES   REMARKS
NEW YORK CITY  CLEAR     75  55  49 VRB6      30.16S
PHILADELPHIA   PTCLDY    69  60  73 S6        30.14F
PITTSBURGH     PTCLDY    70  64  81 CALM      30.11S
ROANOKE        FAIR      66  62  87 CALM      30.17F
RICHMOND       FAIR      66  62  87 CALM      30.13F
RALEIGH        CLOUDY    73  66  78 E3        30.10F

$$

ANZ530>537-290800-
MARINE OBSERVATIONS

STATION/POSITION TIME  TEMP    WIND        PRES
                       AIR SEA DIR/SP/G
                 (UTC) (F)     (DEG/KT/KT) (MB)
THOMAS PT LIGHT  0700   68 68  170/  8/  8 1021.8F
BALT KEY BRIDGE  0600   71     200/  4/  5 1020.7F
COVE POINT       0600   68     200/  7/  8 1021.3F
LEWISETTA        0600   70 68  200/  7/  8 1020.2F
SOLOMONS ISLAND  0600   68 67  100/  3/  3   N/A
PINEY POINT      0600          160/  3/  4   N/A

$$





USA.gov is the U.S. government's official web portal to all federal, state and local government web resources and services.